F4EEX Weather Reports


time (UTC)temp
C
wind
direction
speed
KPH
gust
KPH
rain 1hr
cm
rain 24hr
cm
rain mn
cm
humidity
%
barometer
mb
20260507125240 18 300 0.0 0.0 0.00 0.00 0.00 52 1011.8
20260507124741 19 300 0.0 0.0 0.00 0.00 0.00 51 1011.8
20260507124420 18 300 0.0 0.0 0.00 0.00 0.00 50 1011.8
20260507124240 18 300 0.0 0.0 0.00 0.00 0.00 50 1011.8
20260507123920 18 300 0.0 0.0 0.00 0.00 0.00 52 1012.0
20260507123740 18 300 0.0 0.0 0.00 0.00 0.00 52 1012.0
20260507123240 18 300 0.0 0.0 0.00 0.00 0.00 52 1011.9
20260507122740 18 300 0.0 0.0 0.00 0.00 0.00 52 1011.8
20260507122240 18 300 0.0 0.0 0.00 0.00 0.00 51 1011.9
20260507121740 19 300 0.0 0.0 0.00 0.00 0.00 50 1011.9
20260507121240 19 300 0.0 0.0 0.00 0.00 0.00 50 1011.9
20260507120741 19 300 0.0 0.0 0.00 0.00 0.00 50 1011.8
20260507120240 19 300 0.0 0.0 0.00 0.00 0.00 50 1011.8
20260507115740 19 300 0.0 0.0 0.00 0.00 0.00 48 1011.7
20260507115240 19 300 0.0 0.0 0.00 0.00 0.00 49 1011.7
20260507114740 19 300 0.0 0.0 0.00 0.00 0.00 50 1011.7
20260507114240 18 300 0.0 0.0 0.00 0.00 0.00 51 1011.7
20260507113741 18 300 0.0 0.0 0.00 0.00 0.00 50 1011.8
20260507113240 18 300 0.0 0.0 0.00 0.00 0.00 49 1011.7
20260507112744 19 300 0.0 0.0 0.00 0.00 0.00 47 1011.7
20260507112240 19 300 0.0 0.0 0.00 0.00 0.00 48 1011.6
20260507111740 19 300 0.0 0.0 0.00 0.00 0.00 46 1011.7
20260507111240 19 300 0.0 0.0 0.00 0.00 0.00 47 1011.7
20260507110740 18 300 0.0 0.0 0.00 0.00 0.00 46 1011.7
20260507110240 18 300 0.0 0.0 0.00 0.00 0.00 48 1011.7
20260507105740 18 300 0.0 0.0 0.00 0.00 0.00 50 1011.7
20260507105240 18 300 0.0 0.0 0.00 0.00 0.00 51 1011.8
20260507104740 18 300 0.0 0.0 0.00 0.00 0.00 49 1011.9
20260507104240 18 300 0.0 0.0 0.00 0.00 0.00 49 1012.0
20260507103740 18 300 0.0 0.0 0.00 0.00 0.00 52 1011.9
20260507103240 18 300 0.0 0.0 0.00 0.00 0.00 52 1012.1
20260507102740 18 300 0.0 0.0 0.00 0.00 0.00 52 1012.1
20260507102240 18 300 0.0 0.0 0.00 0.00 0.00 51 1012.0
20260507101740 18 300 0.0 0.0 0.00 0.00 0.00 55 1012.1
20260507101240 18 300 0.0 0.0 0.00 0.00 0.00 53 1012.2
20260507100740 18 300 0.0 0.0 0.00 0.00 0.00 54 1012.2
20260507100240 18 300 0.0 0.0 0.00 0.00 0.00 54 1012.2
20260507095741 18 300 0.0 0.0 0.00 0.00 0.00 54 1012.2
20260507095240 18 300 0.0 0.0 0.00 0.00 0.00 55 1012.2
20260507094740 18 300 0.0 0.0 0.00 0.00 0.00 56 1012.2
20260507094241 18 300 0.0 0.0 0.00 0.00 0.00 54 1012.2
20260507093741 18 300 0.0 0.0 0.00 0.00 0.00 54 1012.2
20260507093241 18 300 0.0 0.0 0.00 0.00 0.00 53 1012.3
20260507092741 17 300 0.0 0.0 0.00 0.00 0.00 54 1012.3
20260507092241 18 300 0.0 0.0 0.00 0.00 0.00 54 1012.2
20260507091741 18 300 0.0 0.0 0.00 0.00 0.00 53 1012.1
20260507091241 18 300 0.0 0.0 0.00 0.00 0.00 53 1012.2
20260507090741 18 300 0.0 0.0 0.00 0.00 0.00 53 1012.1
20260507090241 18 300 0.0 0.0 0.00 0.00 0.00 52 1012.0
20260507085741 18 300 0.0 12.9 0.00 0.00 0.00 54 1012.0
20260507085241 18 37 0.0 8.0 0.00 0.00 0.00 54 1012.0
20260507084741 17 320 0.0 0.0 0.00 0.00 0.00 55 1012.0
20260507084241 17 320 0.0 0.0 0.00 0.00 0.00 54 1012.0
20260507083741 17 320 0.0 0.0 0.00 0.00 0.00 52 1012.1
20260507083241 17 320 0.0 0.0 0.00 0.00 0.00 56 1012.0
20260507082741 17 320 0.0 9.7 0.00 0.00 0.00 56 1012.0
20260507082241 17 196 0.0 0.0 0.00 0.00 0.00 57 1011.9
20260507081741 17 196 0.0 0.0 0.00 0.00 0.00 55 1012.0
20260507081241 17 196 0.0 1.6 0.00 0.00 0.00 56 1011.9
20260507080741 17 320 0.0 8.0 0.00 0.00 0.00 59 1011.9
20260507080241 16 350 0.0 8.0 0.00 0.00 0.00 58 1011.9
20260507075741 17 315 4.8 9.7 0.00 0.00 0.00 60 1011.9
20260507075241 16 319 3.2 9.7 0.00 0.00 0.00 61 1011.9
20260507074741 16 333 0.0 8.0 0.00 0.00 0.00 63 1011.9
20260507074241 16 323 8.0 8.0 0.00 0.00 0.00 64 1011.8
20260507073741 16 1 0.0 6.4 0.00 0.00 0.00 66 1011.8
20260507073241 16 323 6.4 9.7 0.00 0.00 0.00 67 1011.8
20260507072741 16 347 0.0 0.0 0.00 0.00 0.00 68 1011.8
20260507072241 16 347 0.0 0.0 0.00 0.00 0.00 69 1011.8
20260507071741 15 347 0.0 0.0 0.00 0.00 0.00 71 1011.9
20260507071241 15 347 0.0 0.0 0.00 0.00 0.00 71 1011.9
20260507070741 15 347 0.0 0.0 0.00 0.00 0.00 73 1011.8
20260507070241 15 347 0.0 0.0 0.00 0.00 0.00 74 1011.7
20260507065741 15 347 0.0 0.0 0.00 0.00 0.00 76 1011.7
20260507065241 15 347 0.0 0.0 0.00 0.00 0.00 80 1011.6
20260507064741 15 347 0.0 0.0 0.00 0.00 0.00 80 1011.6
20260507064241 15 347 0.0 0.0 0.00 0.00 0.00 81 1011.6
20260507063741 15 347 0.0 0.0 0.00 0.00 0.00 83 1011.6
20260507063241 15 347 0.0 0.0 0.00 0.00 0.00 85 1011.5
20260507062741 14 347 0.0 0.0 0.00 0.00 0.00 86 1011.6
20260507062241 14 347 0.0 0.0 0.00 0.00 0.00 87 1011.5
20260507061741 14 347 0.0 0.0 0.00 0.00 0.00 87 1011.4
20260507061241 14 347 0.0 0.0 0.00 0.00 0.00 88 1011.5
20260507060741 13 347 0.0 0.0 0.00 0.00 0.00 89 1011.6
20260507060241 13 347 0.0 0.0 0.00 0.00 0.00 89 1011.6
20260507055741 12 347 0.0 0.0 0.00 0.00 0.00 90 1011.6
20260507055241 12 347 0.0 0.0 0.00 0.00 0.00 90 1011.6
20260507054741 12 347 0.0 0.0 0.00 0.00 0.00 90 1011.6
20260507054241 12 347 0.0 0.0 0.00 0.00 0.00 89 1011.5
20260507053741 12 347 0.0 0.0 0.00 0.00 0.00 90 1011.5
20260507053241 12 347 0.0 0.0 0.00 0.00 0.00 90 1011.5
20260507052741 12 347 0.0 0.0 0.00 0.00 0.00 91 1011.4
20260507052241 11 347 0.0 0.0 0.00 0.00 0.00 91 1011.3
20260507051741 11 347 0.0 0.0 0.00 0.00 0.00 91 1011.3
20260507051241 11 347 0.0 0.0 0.00 0.00 0.00 91 1011.3
20260507050741 11 347 0.0 0.0 0.00 0.00 0.00 91 1011.2
20260507050241 11 347 0.0 0.0 0.00 0.00 0.00 91 1011.2
20260507045741 11 347 0.0 0.0 0.00 0.00 0.00 91 1011.2
20260507045241 11 347 0.0 0.0 0.00 0.00 0.00 91 1011.1
20260507044741 11 347 0.0 0.0 0.00 0.00 0.00 91 1011.1
20260507044241 11 347 0.0 0.0 0.00 0.00 0.00 91 1011.1
20260507043741 11 347 0.0 0.0 0.00 0.00 0.00 91 1011.1
20260507043241 11 347 0.0 0.0 0.00 0.00 0.00 91 1011.0
20260507042741 11 347 0.0 0.0 0.00 0.00 0.00 91 1011.0
20260507042241 11 347 0.0 0.0 0.00 0.00 0.00 90 1011.1
20260507041741 11 347 0.0 0.0 0.00 0.00 0.00 90 1011.0
20260507041241 11 347 0.0 0.0 0.00 0.00 0.00 90 1011.0
20260507040741 11 347 0.0 0.0 0.00 0.00 0.00 90 1011.0
20260507040241 11 347 0.0 0.0 0.00 0.00 0.00 90 1011.0
20260507035741 11 347 0.0 0.0 0.00 0.00 0.00 90 1011.0
20260507035241 11 347 0.0 0.0 0.00 0.00 0.00 90 1011.0
20260507034741 11 347 0.0 0.0 0.00 0.00 0.00 90 1010.9
20260507034241 11 347 0.0 0.0 0.00 0.00 0.00 90 1010.9
20260507033741 11 347 0.0 0.0 0.00 0.00 0.00 90 1010.9
20260507033241 11 347 0.0 0.0 0.00 0.00 0.00 90 1010.9
20260507032741 11 347 0.0 0.0 0.00 0.00 0.00 90 1010.9
20260507032241 11 347 0.0 0.0 0.00 0.00 0.00 90 1010.9
20260507031741 11 347 0.0 0.0 0.00 0.00 0.00 90 1010.9
20260507031241 11 347 0.0 0.0 0.00 0.00 0.00 90 1010.8
20260507030741 12 347 0.0 0.0 0.00 0.00 0.00 89 1010.9
20260507030241 12 347 0.0 0.0 0.00 0.00 0.00 89 1010.9
20260507025741 12 347 0.0 0.0 0.00 0.00 0.00 89 1011.0
20260507025241 12 347 0.0 0.0 0.00 0.00 0.00 89 1011.0
20260507024741 12 347 0.0 0.0 0.00 0.00 0.00 89 1011.0
20260507024241 12 347 0.0 0.0 0.00 0.00 0.00 89 1011.0
20260507023741 12 347 0.0 0.0 0.00 0.00 0.00 89 1011.1
20260507023241 12 347 0.0 0.0 0.00 0.00 0.00 89 1011.1
20260507022741 12 347 0.0 0.0 0.00 0.00 0.00 88 1011.1
20260507022241 12 347 0.0 0.0 0.00 0.00 0.00 88 1011.0
20260507021741 12 347 0.0 0.0 0.00 0.00 0.00 88 1011.0
20260507021241 12 347 0.0 0.0 0.00 0.00 0.00 88 1011.0
20260507020741 12 347 0.0 0.0 0.00 0.00 0.00 88 1011.0
20260507020241 12 347 0.0 0.0 0.00 0.00 0.00 88 1011.1
20260507015741 12 347 0.0 0.0 0.00 0.00 0.00 88 1011.1
20260507015241 12 347 0.0 0.0 0.00 0.00 0.00 88 1011.1
20260507014741 12 347 0.0 0.0 0.00 0.00 0.00 87 1011.1
20260507014241 12 347 0.0 0.0 0.00 0.00 0.00 87 1011.0
20260507013741 12 347 0.0 0.0 0.00 0.00 0.00 87 1011.1
20260507013241 12 347 0.0 0.0 0.00 0.00 0.00 87 1011.1
20260507012741 13 347 0.0 0.0 0.00 0.00 0.00 87 1011.0
20260507012241 13 347 0.0 0.0 0.00 0.00 0.00 87 1011.1
20260507011741 12 347 0.0 0.0 0.00 0.00 0.00 87 1011.1
20260507011241 13 347 0.0 0.0 0.00 0.00 0.00 86 1011.1
20260507010741 13 347 0.0 0.0 0.00 0.00 0.00 86 1011.1
20260507010241 13 347 0.0 0.0 0.00 0.00 0.00 86 1011.1
20260507005741 13 347 0.0 0.0 0.00 0.00 0.00 86 1011.2
20260507005241 13 347 0.0 0.0 0.00 0.03 0.00 86 1011.3
20260507004741 13 347 0.0 0.0 0.00 0.03 0.00 86 1011.3
20260507004241 13 347 0.0 0.0 0.00 0.03 0.00 86 1011.3
20260507003741 13 347 0.0 0.0 0.00 0.03 0.00 85 1011.2
20260507003241 13 347 0.0 0.0 0.00 0.03 0.00 85 1011.2
20260507002741 13 347 0.0 0.0 0.00 0.03 0.00 85 1011.3
20260507002241 13 347 0.0 0.0 0.00 0.03 0.00 85 1011.3
20260507001741 13 347 0.0 0.0 0.00 0.03 0.00 85 1011.4
20260507001241 13 347 0.0 0.0 0.00 0.03 0.00 84 1011.3
20260507000741 13 347 0.0 0.0 0.00 0.03 0.00 84 1011.4
20260507000241 13 347 0.0 0.0 0.00 0.03 0.00 84 1011.4
20260506235741 13 347 0.0 0.0 0.00 0.03 0.00 84 1011.4
20260506235241 14 347 0.0 0.0 0.00 0.64 0.00 83 1011.4
20260506234741 14 347 0.0 0.0 0.00 0.64 0.00 83 1011.5
20260506234241 14 347 0.0 0.0 0.00 0.64 0.00 83 1011.5
20260506233741 14 347 0.0 0.0 0.00 0.64 0.00 82 1011.6
20260506233241 14 347 0.0 0.0 0.00 0.64 0.00 82 1011.6
20260506232741 14 347 0.0 0.0 0.00 0.64 0.00 82 1011.7
20260506232241 15 347 0.0 0.0 0.00 0.64 0.00 81 1011.7
20260506231741 15 347 0.0 0.0 0.00 0.64 0.00 81 1011.7
20260506231241 15 347 0.0 0.0 0.00 0.64 0.00 81 1011.7
20260506230741 15 347 0.0 0.0 0.00 0.64 0.00 81 1011.8
20260506230241 15 347 0.0 0.0 0.00 0.64 0.00 81 1011.8
20260506225742 15 347 0.0 1.6 0.00 0.64 0.00 81 1011.8
20260506225242 15 347 1.6 9.7 0.00 1.22 0.00 81 1011.8
20260506224742 15 343 6.4 16.1 0.00 1.22 0.00 81 1011.8
20260506224242 15 331 14.5 16.1 0.00 1.22 0.00 81 1011.8
20260506223741 15 345 0.0 17.7 0.00 1.22 0.00 80 1011.8
20260506223242 15 322 17.7 17.7 0.00 1.22 0.00 80 1011.9
20260506222742 15 327 9.7 14.5 0.00 1.22 0.00 80 1011.9
20260506222242 15 8 8.0 14.5 0.00 1.22 0.00 80 1011.9
20260506221742 15 323 9.7 24.1 0.00 1.22 0.00 80 1011.9
20260506221242 15 300 4.8 29.0 0.00 1.22 0.00 79 1011.9
20260506220742 15 326 16.1 17.7 0.00 1.22 0.00 79 1011.9
20260506220242 15 340 0.0 14.5 0.00 1.22 0.00 78 1011.9
20260506215742 15 330 8.0 12.9 0.00 1.22 1.47 78 1011.8
20260506215242 15 348 1.6 14.5 0.00 1.47 1.47 78 1011.9
20260506214742 15 324 11.3 20.9 0.00 1.47 1.47 79 1011.8
20260506214242 15 300 4.8 20.9 0.00 1.47 1.47 79 1011.9
20260506213742 15 344 3.2 8.0 0.00 1.47 1.47 77 1011.8
20260506213242 14 2 6.4 11.3 0.00 1.47 1.47 78 1011.8
20260506212742 14 8 0.0 6.4 0.00 1.47 1.47 76 1011.8
20260506212242 14 354 0.0 3.2 0.00 1.47 1.47 76 1011.8
20260506211742 15 21 0.0 6.4 0.00 1.47 1.47 75 1011.8
20260506211242 15 345 0.0 6.4 0.00 1.47 1.47 75 1011.8
20260506210742 15 26 4.8 6.4 0.00 1.47 1.47 74 1011.8
20260506210242 15 56 4.8 8.0 0.00 1.47 1.47 73 1011.8
20260506205742 15 333 1.6 8.0 0.00 1.47 1.47 72 1011.8
20260506205242 16 68 4.8 4.8 0.00 1.47 1.47 72 1011.8
20260506204742 15 340 1.6 12.9 0.00 1.47 1.47 72 1011.8
20260506204242 15 336 3.2 12.9 0.00 1.47 1.47 72 1011.8
20260506203742 15 322 11.3 12.9 0.00 1.47 1.47 72 1011.8
20260506203242 15 300 11.3 12.9 0.00 1.47 1.47 72 1011.7
20260506202742 15 357 8.0 11.3 0.00 1.47 1.47 71 1011.6
20260506202242 15 337 4.8 14.5 0.00 1.47 1.47 71 1011.5
20260506201742 15 337 8.0 14.5 0.00 1.47 1.47 71 1011.5
20260506201242 15 344 4.8 12.9 0.00 1.47 1.47 70 1011.4
20260506200742 15 340 0.0 11.3 0.00 1.47 1.47 70 1011.4
20260506200242 15 300 0.0 8.0 0.00 1.47 1.47 69 1011.4
20260506195742 15 334 3.2 16.1 0.00 1.47 1.47 69 1011.2
20260506195242 15 300 14.5 16.1 0.00 1.47 1.47 69 1011.2
20260506194742 15 4 12.9 16.1 0.00 1.47 1.47 70 1011.2
20260506194242 15 300 0.0 11.3 0.00 1.47 1.47 70 1011.0
20260506193742 15 300 0.0 12.9 0.00 1.47 1.47 70 1010.9
20260506193242 15 358 0.0 3.2 0.00 1.47 1.47 70 1010.8
20260506192742 15 300 0.0 8.0 0.00 1.47 1.47 70 1010.7
20260506192242 15 300 1.6 3.2 0.00 1.47 1.47 70 1010.6
20260506191742 15 300 0.0 8.0 0.00 1.47 1.47 70 1010.5
20260506191242 15 11 0.0 0.0 0.00 1.47 1.47 70 1010.5
20260506190742 15 11 0.0 0.0 0.00 1.47 1.47 69 1010.4
20260506190242 15 11 0.0 8.0 0.00 1.47 1.47 69 1010.2
20260506185742 15 350 3.2 8.0 0.00 1.47 1.47 69 1010.2
20260506185242 15 300 3.2 11.3 0.00 1.47 1.47 69 1010.1
20260506184742 16 351 6.4 14.5 0.00 1.47 1.47 69 1010.0
20260506184242 16 300 12.9 14.5 0.00 1.47 1.47 68 1010.0
20260506183742 16 333 11.3 12.9 0.00 1.47 1.47 67 1009.9
20260506183242 16 336 0.0 17.7 0.00 1.47 1.47 67 1009.9
20260506182742 16 300 8.0 17.7 0.00 1.47 1.47 66 1009.8
20260506182242 16 357 9.7 22.5 0.00 1.47 1.47 66 1009.7
20260506181742 16 320 0.0 0.0 0.00 1.47 1.47 65 1009.7
20260506181242 16 320 0.0 0.0 0.00 1.47 1.47 64 1009.6
20260506180742 16 320 0.0 0.0 0.00 1.47 1.47 64 1009.5
20260506180242 16 320 0.0 0.0 0.00 1.47 1.47 64 1009.5
20260506175742 16 320 0.0 11.3 0.00 1.47 1.47 65 1009.4
20260506175242 16 320 0.0 0.0 0.00 1.47 1.47 65 1009.4
20260506174742 16 320 0.0 0.0 0.00 1.47 1.47 64 1009.4
20260506174242 16 320 0.0 0.0 0.00 1.47 1.47 64 1009.4
20260506173742 16 320 0.0 22.5 0.00 1.47 1.47 63 1009.4
20260506173242 16 309 22.5 22.5 0.00 1.47 1.47 64 1009.4
20260506172742 16 320 12.9 24.1 0.00 1.47 1.47 63 1009.4
20260506172242 16 300 9.7 19.3 0.00 1.47 1.47 61 1009.3
20260506171742 17 300 0.0 19.3 0.00 1.47 1.47 61 1009.2
20260506171242 17 300 0.0 22.5 0.00 1.47 1.47 61 1009.2
20260506170742 16 300 0.0 24.1 0.00 1.47 1.47 60 1009.2
20260506170242 17 329 0.0 17.7 0.00 1.47 1.47 62 1009.2
20260506165742 16 300 0.0 20.9 0.00 1.47 1.47 61 1009.2
20260506165242 16 300 3.2 19.3 0.00 1.47 1.47 61 1009.1
20260506164742 16 312 14.5 24.1 0.00 1.47 1.47 60 1009.2
20260506164242 17 300 1.6 27.4 0.00 1.47 1.47 59 1009.1
20260506163742 17 300 0.0 0.0 0.00 1.47 1.47 59 1009.1
20260506163242 17 300 0.0 0.0 0.00 1.47 1.47 59 1009.2
20260506162742 17 300 0.0 19.3 0.00 1.47 1.47 60 1009.3
20260506162242 17 300 0.0 19.3 0.00 1.47 1.47 60 1009.3
20260506161742 17 300 0.0 0.0 0.00 1.47 1.47 57 1009.3
20260506161242 17 300 0.0 0.0 0.00 1.47 1.47 59 1009.3
20260506160742 17 300 0.0 6.4 0.00 1.47 1.47 60 1009.4
20260506160242 17 300 0.0 25.7 0.00 1.47 1.47 58 1009.4
20260506155742 17 300 0.0 0.0 0.00 1.47 1.47 59 1009.4
20260506155242 17 300 0.0 0.0 0.00 1.47 1.47 59 1009.4
20260506154742 17 300 0.0 0.0 0.00 1.47 1.47 61 1009.4
20260506154242 17 300 0.0 0.0 0.00 1.47 1.47 59 1009.4
20260506153742 17 300 0.0 0.0 0.00 1.47 1.47 59 1009.4
20260506153242 17 300 0.0 0.0 0.00 1.47 1.47 57 1009.3
20260506152742 17 300 0.0 29.0 0.00 1.47 1.47 59 1009.3
20260506152242 17 300 0.0 30.6 0.00 1.47 1.47 60 1009.3
20260506151742 17 300 0.0 0.0 0.00 1.47 1.47 60 1009.3
20260506151242 17 300 0.0 3.2 0.00 1.47 1.47 59 1009.3
20260506150742 17 338 0.0 30.6 0.00 1.47 1.47 58 1009.4
20260506150242 17 28 0.0 29.0 0.00 1.47 1.47 57 1009.4
20260506145742 17 300 0.0 0.0 0.00 1.47 1.47 60 1009.4
20260506145242 17 300 0.0 0.0 0.00 1.47 1.47 59 1009.4
20260506144742 17 300 0.0 30.6 0.00 1.47 1.47 60 1009.4
20260506144242 17 323 0.0 24.1 0.00 1.47 1.47 61 1009.4
20260506143742 16 307 19.3 32.2 0.00 1.47 1.47 61 1009.5
20260506143242 16 300 4.8 32.2 0.00 1.47 1.47 60 1009.5
20260506142742 16 300 0.0 30.6 0.00 1.47 1.47 60 1009.4
20260506142242 16 300 0.0 3.2 0.00 1.47 1.47 60 1009.5
20260506141742 17 300 3.2 9.7 0.00 1.47 1.47 58 1009.6
20260506141242 16 300 0.0 29.0 0.00 1.47 1.47 61 1009.5
20260506140742 16 300 0.0 0.0 0.00 1.47 1.47 59 1009.5
20260506140242 17 300 0.0 0.0 0.00 1.47 1.47 60 1009.6
20260506135742 17 300 0.0 1.6 0.00 1.47 1.47 59 1009.6
20260506135242 17 300 0.0 1.6 0.00 1.47 1.47 57 1009.7
20260506134742 17 300 0.0 0.0 0.00 1.47 1.47 58 1009.8
20260506134242 17 300 0.0 0.0 0.00 1.47 1.47 57 1009.8
20260506133742 16 300 0.0 0.0 0.00 1.47 1.47 56 1009.9
20260506133242 17 300 0.0 0.0 0.00 1.47 1.47 55 1009.9
20260506132742 17 300 0.0 0.0 0.00 1.47 1.47 54 1010.0
20260506132242 17 300 0.0 0.0 0.00 1.47 1.47 57 1010.0
20260506131742 17 300 0.0 0.0 0.00 1.47 1.47 58 1010.0
20260506131242 16 300 0.0 11.3 0.00 1.47 1.47 58 1010.0
20260506130742 17 300 0.0 27.4 0.00 1.47 1.47 59 1010.0
20260506130242 16 317 22.5 25.7 0.00 1.47 1.47 58 1010.0
20260506125742 17 300 0.0 24.1 0.00 1.47 1.47 59 1010.0